contact:dominique.lefevre@mio.osupytheas.fr, maurice.libes@osupytheas.fr, didier.mallarino@osupytheas.fr
Project:EMSO http://www.emso-fr.org/EMSO-France
Depth: 2436.0 m
Title:EMSO Ligure Ouest : Data MII capteur CSTAR
DateTime,Latitude,Longitude,Instrument_Serial,Reference_Counts,Signal_Counts,Corrected_Signal_raw_counts,Calculated_Beam_c_inverse_meters,Internal_thermistor_counts
DateTime,Latitude,Longitude,Instrument_Serial,Reference_Counts,Signal_Counts,Corrected_Signal_raw_counts,Calculated_Beam_c_inverse_meters,Internal_thermistor_counts
2022-02-21T00:00:46,42.805,6.029,CST-1368DR,4888,6018,13143,0.690,551
2022-02-21T00:03:48,42.805,6.029,CST-1368DR,4888,6018,13145,0.689,551
2022-02-21T00:06:49,42.805,6.029,CST-1368DR,4888,6017,13143,0.690,551
2022-02-21T00:09:51,42.805,6.029,CST-1368DR,4888,6018,13144,0.689,551
2022-02-21T00:12:52,42.805,6.029,CST-1368DR,4888,6018,13143,0.690,551
2022-02-21T00:15:54,42.805,6.029,CST-1368DR,4888,6016,13140,0.691,551
2022-02-21T00:18:55,42.805,6.029,CST-1368DR,4888,6017,13142,0.690,551
2022-02-21T00:21:57,42.805,6.029,CST-1368DR,4888,6018,13144,0.689,551
2022-02-21T00:24:59,42.805,6.029,CST-1368DR,4888,6017,13141,0.690,551
2022-02-21T00:28:00,42.805,6.029,CST-1368DR,4888,6018,13144,0.689,551
2022-02-21T00:31:02,42.805,6.029,CST-1368DR,4888,6018,13145,0.689,551
2022-02-21T00:34:03,42.805,6.029,CST-1368DR,4888,6018,13144,0.689,551
2022-02-21T00:37:05,42.805,6.029,CST-1368DR,4888,6018,13145,0.689,551
2022-02-21T00:40:06,42.805,6.029,CST-1368DR,4888,6017,13141,0.690,551
2022-02-21T00:43:08,42.805,6.029,CST-1368DR,4888,6017,13142,0.690,551
2022-02-21T00:46:10,42.805,6.029,CST-1368DR,4888,6017,13143,0.690,551
2022-02-21T00:49:11,42.805,6.029,CST-1368DR,4888,6018,13144,0.689,551
2022-02-21T00:52:13,42.805,6.029,CST-1368DR,4888,6017,13141,0.690,551
2022-02-21T00:55:14,42.805,6.029,CST-1368DR,4888,6018,13143,0.690,551
2022-02-21T00:58:16,42.805,6.029,CST-1368DR,4888,6017,13143,0.690,551
2022-02-21T01:01:18,42.805,6.029,CST-1368DR,4888,6018,13145,0.689,551
2022-02-21T01:04:19,42.805,6.029,CST-1368DR,4888,6018,13145,0.689,551
2022-02-21T01:07:21,42.805,6.029,CST-1368DR,4888,6018,13143,0.690,551
2022-02-21T01:10:22,42.805,6.029,CST-1368DR,4888,6019,13146,0.689,551
2022-02-21T01:13:24,42.805,6.029,CST-1368DR,4888,6019,13146,0.689,551
2022-02-21T01:16:25,42.805,6.029,CST-1368DR,4888,6018,13145,0.689,551
2022-02-21T01:19:27,42.805,6.029,CST-1368DR,4888,6018,13145,0.689,551
2022-02-21T01:22:29,42.805,6.029,CST-1368DR,4888,6017,13141,0.690,551
2022-02-21T01:25:30,42.805,6.029,CST-1368DR,4888,6018,13143,0.690,551
2022-02-21T01:28:32,42.805,6.029,CST-1368DR,4888,6019,13146,0.689,551
2022-02-21T01:31:33,42.805,6.029,CST-1368DR,4888,6019,13147,0.688,551
2022-02-21T01:34:35,42.805,6.029,CST-1368DR,4888,6019,13146,0.689,551
2022-02-21T01:37:37,42.805,6.029,CST-1368DR,4888,6019,13146,0.689,551
2022-02-21T01:40:38,42.805,6.029,CST-1368DR,4888,6019,13146,0.689,551
2022-02-21T01:43:40,42.805,6.029,CST-1368DR,4888,6018,13145,0.689,551
2022-02-21T01:46:41,42.805,6.029,CST-1368DR,4888,6019,13146,0.689,551
2022-02-21T01:49:43,42.805,6.029,CST-1368DR,4888,6019,13146,0.689,551
2022-02-21T01:52:44,42.805,6.029,CST-1368DR,4888,6018,13144,0.689,551
2022-02-21T01:55:46,42.805,6.029,CST-1368DR,4888,6019,13146,0.689,551
2022-02-21T01:58:48,42.805,6.029,CST-1368DR,4888,6018,13145,0.689,551
2022-02-21T02:01:49,42.805,6.029,CST-1368DR,4888,6018,13145,0.689,551
2022-02-21T02:04:51,42.805,6.029,CST-1368DR,4888,6019,13146,0.689,551
2022-02-21T02:07:52,42.805,6.029,CST-1368DR,4888,6019,13146,0.689,551
2022-02-21T02:10:54,42.805,6.029,CST-1368DR,4888,6019,13147,0.688,551
2022-02-21T02:13:55,42.805,6.029,CST-1368DR,4888,6019,13146,0.689,551
2022-02-21T02:16:57,42.805,6.029,CST-1368DR,4888,6019,13146,0.689,551
2022-02-21T02:19:59,42.805,6.029,CST-1368DR,4888,6018,13145,0.689,551
2022-02-21T02:23:00,42.805,6.029,CST-1368DR,4888,6019,13147,0.688,551
2022-02-21T02:26:02,42.805,6.029,CST-1368DR,4888,6019,13147,0.688,551
2022-02-21T02:29:03,42.805,6.029,CST-1368DR,4888,6017,13141,0.690,551
2022-02-21T02:32:05,42.805,6.029,CST-1368DR,4888,6018,13143,0.690,551
2022-02-21T02:35:07,42.805,6.029,CST-1368DR,4888,6017,13143,0.690,550
2022-02-21T02:38:08,42.805,6.029,CST-1368DR,4888,6018,13143,0.690,551
2022-02-21T02:41:10,42.805,6.029,CST-1368DR,4888,6018,13143,0.690,551
2022-02-21T02:44:11,42.805,6.029,CST-1368DR,4888,6018,13145,0.689,551
2022-02-21T02:47:13,42.805,6.029,CST-1368DR,4888,6018,13145,0.689,551
2022-02-21T02:50:14,42.805,6.029,CST-1368DR,4888,6017,13142,0.690,551
2022-02-21T02:53:16,42.805,6.029,CST-1368DR,4888,6017,13141,0.690,551
2022-02-21T02:56:18,42.805,6.029,CST-1368DR,4888,6020,13148,0.688,551
2022-02-21T02:59:19,42.805,6.029,CST-1368DR,4888,6019,13147,0.688,551
2022-02-21T03:02:21,42.805,6.029,CST-1368DR,4888,6018,13143,0.690,551
2022-02-21T03:05:22,42.805,6.029,CST-1368DR,4888,6017,13143,0.690,551
2022-02-21T03:08:24,42.805,6.029,CST-1368DR,4888,6018,13144,0.689,551
2022-02-21T03:11:25,42.805,6.029,CST-1368DR,4888,6018,13145,0.689,551
2022-02-21T03:14:27,42.805,6.029,CST-1368DR,4888,6016,13140,0.691,551
2022-02-21T03:17:29,42.805,6.029,CST-1368DR,4888,6016,13139,0.691,551
2022-02-21T03:20:30,42.805,6.029,CST-1368DR,4888,6020,13149,0.688,551
2022-02-21T03:23:32,42.805,6.029,CST-1368DR,4888,6020,13148,0.688,551
2022-02-21T03:26:33,42.805,6.029,CST-1368DR,4888,6019,13147,0.688,551
2022-02-21T03:29:35,42.805,6.029,CST-1368DR,4888,6018,13144,0.689,551
2022-02-21T03:32:37,42.805,6.029,CST-1368DR,4888,6020,13149,0.688,550
2022-02-21T03:35:38,42.805,6.029,CST-1368DR,4888,6018,13145,0.689,551
2022-02-21T03:38:40,42.805,6.029,CST-1368DR,4888,6019,13146,0.689,551
2022-02-21T03:41:41,42.805,6.029,CST-1368DR,4888,6019,13146,0.689,551
2022-02-21T03:44:43,42.805,6.029,CST-1368DR,4888,6020,13148,0.688,551
2022-02-21T03:47:44,42.805,6.029,CST-1368DR,4888,6019,13147,0.688,551
2022-02-21T03:50:46,42.805,6.029,CST-1368DR,4888,6019,13146,0.689,551
2022-02-21T03:53:48,42.805,6.029,CST-1368DR,4888,6019,13146,0.689,551
2022-02-21T03:56:49,42.805,6.029,CST-1368DR,4887,6019,13150,0.687,551
2022-02-21T03:59:51,42.805,6.029,CST-1368DR,4888,6021,13151,0.687,551
2022-02-21T04:02:52,42.805,6.029,CST-1368DR,4888,6018,13145,0.689,551
2022-02-21T04:05:54,42.805,6.029,CST-1368DR,4888,6018,13145,0.689,551
2022-02-21T04:08:55,42.805,6.029,CST-1368DR,4888,6020,13148,0.688,551
2022-02-21T04:11:57,42.805,6.029,CST-1368DR,4888,6019,13147,0.688,551
2022-02-21T04:14:59,42.805,6.029,CST-1368DR,4888,6020,13148,0.688,551
2022-02-21T04:18:00,42.805,6.029,CST-1368DR,4888,6018,13145,0.689,551
2022-02-21T04:21:02,42.805,6.029,CST-1368DR,4888,6013,13133,0.693,551
2022-02-21T04:24:03,42.805,6.029,CST-1368DR,4888,6016,13140,0.691,551
2022-02-21T04:27:05,42.805,6.029,CST-1368DR,4888,6020,13148,0.688,551
2022-02-21T04:30:07,42.805,6.029,CST-1368DR,4888,6018,13145,0.689,551
2022-02-21T04:33:08,42.805,6.029,CST-1368DR,4888,6016,13140,0.691,551
2022-02-21T04:36:10,42.805,6.029,CST-1368DR,4887,6017,13145,0.689,551
2022-02-21T04:39:11,42.805,6.029,CST-1368DR,4888,6018,13144,0.689,551
2022-02-21T04:42:13,42.805,6.029,CST-1368DR,4887,6016,13142,0.690,551
2022-02-21T04:45:14,42.805,6.029,CST-1368DR,4888,6017,13141,0.690,551
2022-02-21T04:48:16,42.805,6.029,CST-1368DR,4887,6019,13148,0.688,551
2022-02-21T04:51:18,42.805,6.029,CST-1368DR,4887,6013,13137,0.691,551
2022-02-21T04:54:19,42.805,6.029,CST-1368DR,4887,6018,13146,0.689,551
2022-02-21T04:57:21,42.805,6.029,CST-1368DR,4887,6016,13143,0.690,551
2022-02-21T05:00:22,42.805,6.029,CST-1368DR,4887,6017,13145,0.689,551
2022-02-21T05:03:24,42.805,6.029,CST-1368DR,4887,6016,13142,0.690,551
2022-02-21T05:06:26,42.805,6.029,CST-1368DR,4887,6017,13144,0.689,551
2022-02-21T05:09:27,42.805,6.029,CST-1368DR,4887,6018,13147,0.688,551
2022-02-21T05:12:29,42.805,6.029,CST-1368DR,4887,6018,13148,0.688,551
2022-02-21T05:15:30,42.805,6.029,CST-1368DR,4888,6017,13143,0.690,551
2022-02-21T05:18:32,42.805,6.029,CST-1368DR,4887,6017,13144,0.689,551
2022-02-21T05:21:33,42.805,6.029,CST-1368DR,4887,6017,13144,0.689,551
2022-02-21T05:24:35,42.805,6.029,CST-1368DR,4887,6016,13142,0.690,551
2022-02-21T05:27:37,42.805,6.029,CST-1368DR,4887,6016,13143,0.690,551
2022-02-21T05:30:38,42.805,6.029,CST-1368DR,4887,6015,13141,0.690,551
2022-02-21T05:33:40,42.805,6.029,CST-1368DR,4887,6016,13143,0.690,551
2022-02-21T05:36:41,42.805,6.029,CST-1368DR,4887,6015,13141,0.690,551
2022-02-21T05:39:43,42.805,6.029,CST-1368DR,4887,6015,13141,0.690,551
2022-02-21T05:42:44,42.805,6.029,CST-1368DR,4888,6018,13143,0.690,551
2022-02-21T05:45:46,42.805,6.029,CST-1368DR,4887,6016,13143,0.690,551
2022-02-21T05:48:48,42.805,6.029,CST-1368DR,4887,6015,13140,0.691,551
2022-02-21T05:51:49,42.805,6.029,CST-1368DR,4887,6016,13142,0.690,551
2022-02-21T05:54:51,42.805,6.029,CST-1368DR,4888,6016,13140,0.691,551
2022-02-21T05:57:52,42.805,6.029,CST-1368DR,4887,6016,13142,0.690,551
2022-02-21T06:00:54,42.805,6.029,CST-1368DR,4888,6015,13137,0.691,551
2022-02-21T06:03:56,42.805,6.029,CST-1368DR,4887,6014,13138,0.691,551
2022-02-21T06:06:57,42.805,6.029,CST-1368DR,4888,6016,13140,0.691,551
2022-02-21T06:09:59,42.805,6.029,CST-1368DR,4888,6013,13133,0.693,551
2022-02-21T06:13:00,42.805,6.029,CST-1368DR,4888,6014,13136,0.692,551
2022-02-21T06:16:02,42.805,6.029,CST-1368DR,4888,6015,13137,0.691,551
2022-02-21T06:19:03,42.805,6.029,CST-1368DR,4888,6015,13137,0.691,551
2022-02-21T06:22:05,42.805,6.029,CST-1368DR,4887,6015,13141,0.690,551
2022-02-21T06:25:07,42.805,6.029,CST-1368DR,4887,6014,13139,0.691,551
2022-02-21T06:28:08,42.805,6.029,CST-1368DR,4888,6012,13132,0.693,551
2022-02-21T06:31:10,42.805,6.029,CST-1368DR,4887,6015,13139,0.691,551
2022-02-21T06:34:11,42.805,6.029,CST-1368DR,4887,6016,13142,0.690,551
2022-02-21T06:37:13,42.805,6.029,CST-1368DR,4887,6013,13137,0.691,551
2022-02-21T06:40:14,42.805,6.029,CST-1368DR,4887,6015,13141,0.690,551
2022-02-21T06:43:16,42.805,6.029,CST-1368DR,4887,6015,13139,0.691,551
2022-02-21T06:46:18,42.805,6.029,CST-1368DR,4887,6016,13143,0.690,551
2022-02-21T06:49:19,42.805,6.029,CST-1368DR,4887,6015,13140,0.691,551
2022-02-21T06:52:21,42.805,6.029,CST-1368DR,4887,6014,13139,0.691,551
2022-02-21T06:55:22,42.805,6.029,CST-1368DR,4887,6015,13140,0.691,551
2022-02-21T06:58:24,42.805,6.029,CST-1368DR,4887,6016,13142,0.690,551
2022-02-21T07:01:26,42.805,6.029,CST-1368DR,4887,6014,13139,0.691,551
2022-02-21T07:04:27,42.805,6.029,CST-1368DR,4887,6016,13142,0.690,551
2022-02-21T07:07:29,42.805,6.029,CST-1368DR,4887,6014,13139,0.691,551
2022-02-21T07:10:30,42.805,6.029,CST-1368DR,4887,6015,13141,0.690,551
2022-02-21T07:13:32,42.805,6.029,CST-1368DR,4887,6015,13141,0.690,551
2022-02-21T07:16:33,42.805,6.029,CST-1368DR,4887,6015,13141,0.690,551
2022-02-21T07:19:35,42.805,6.029,CST-1368DR,4887,6013,13135,0.692,551
2022-02-21T07:22:37,42.805,6.029,CST-1368DR,4887,6012,13134,0.692,551
2022-02-21T07:25:38,42.805,6.029,CST-1368DR,4887,6014,13139,0.691,551
2022-02-21T07:28:40,42.805,6.029,CST-1368DR,4887,6015,13141,0.690,551
2022-02-21T07:31:41,42.805,6.029,CST-1368DR,4887,6015,13140,0.691,551
2022-02-21T07:34:43,42.805,6.029,CST-1368DR,4887,6014,13139,0.691,551
2022-02-21T07:37:45,42.805,6.029,CST-1368DR,4887,6015,13140,0.691,551
2022-02-21T07:40:46,42.805,6.029,CST-1368DR,4887,6016,13142,0.690,551
2022-02-21T07:43:48,42.805,6.029,CST-1368DR,4887,6015,13141,0.690,551
2022-02-21T07:46:49,42.805,6.029,CST-1368DR,4887,6011,13132,0.693,551
2022-02-21T07:49:51,42.805,6.029,CST-1368DR,4887,6016,13142,0.690,551
2022-02-21T07:52:52,42.805,6.029,CST-1368DR,4887,6015,13139,0.691,551
2022-02-21T07:55:54,42.805,6.029,CST-1368DR,4887,6014,13139,0.691,551
2022-02-21T07:58:56,42.805,6.029,CST-1368DR,4887,6014,13138,0.691,551
2022-02-21T08:01:57,42.805,6.029,CST-1368DR,4887,6015,13141,0.690,551
2022-02-21T08:04:59,42.805,6.029,CST-1368DR,4887,6012,13133,0.693,551
2022-02-21T08:08:00,42.805,6.029,CST-1368DR,4887,6012,13134,0.692,551
2022-02-21T08:11:02,42.805,6.029,CST-1368DR,4887,6012,13133,0.693,551
2022-02-21T08:14:04,42.805,6.029,CST-1368DR,4887,6012,13134,0.692,551
2022-02-21T08:17:05,42.805,6.029,CST-1368DR,4887,6012,13133,0.693,551
2022-02-21T08:20:07,42.805,6.029,CST-1368DR,4887,6011,13131,0.693,551
2022-02-21T08:23:08,42.805,6.029,CST-1368DR,4887,6012,13133,0.693,551
2022-02-21T08:26:10,42.805,6.029,CST-1368DR,4887,6012,13134,0.692,551
2022-02-21T08:29:11,42.805,6.029,CST-1368DR,4887,6012,13133,0.693,551
2022-02-21T08:32:13,42.805,6.029,CST-1368DR,4887,5995,13097,0.704,551
2022-02-21T08:35:15,42.805,6.029,CST-1368DR,4887,6012,13135,0.692,551
2022-02-21T08:38:16,42.805,6.029,CST-1368DR,4887,6012,13133,0.693,551
2022-02-21T08:41:18,42.805,6.029,CST-1368DR,4887,6011,13131,0.693,551
2022-02-21T08:44:19,42.805,6.029,CST-1368DR,4887,6013,13135,0.692,551
2022-02-21T08:47:21,42.805,6.029,CST-1368DR,4887,6012,13134,0.692,551
2022-02-21T08:50:22,42.805,6.029,CST-1368DR,4887,6011,13132,0.693,551
2022-02-21T08:53:24,42.805,6.029,CST-1368DR,4887,6012,13135,0.692,551
2022-02-21T08:56:26,42.805,6.029,CST-1368DR,4887,6011,13131,0.693,551
2022-02-21T08:59:27,42.805,6.029,CST-1368DR,4887,6011,13131,0.693,551
2022-02-21T09:02:29,42.805,6.029,CST-1368DR,4887,6011,13131,0.693,551
2022-02-21T09:05:30,42.805,6.029,CST-1368DR,4887,6010,13129,0.694,551
2022-02-21T09:08:32,42.805,6.029,CST-1368DR,4887,6009,13128,0.694,551
2022-02-21T09:11:34,42.805,6.029,CST-1368DR,4887,6011,13131,0.693,551
2022-02-21T09:14:35,42.805,6.029,CST-1368DR,4887,6009,13126,0.695,551
2022-02-21T09:17:37,42.805,6.029,CST-1368DR,4887,6009,13127,0.694,551
2022-02-21T09:20:38,42.805,6.029,CST-1368DR,4887,6010,13129,0.694,551
2022-02-21T09:23:40,42.805,6.029,CST-1368DR,4887,6009,13127,0.694,551
2022-02-21T09:26:41,42.805,6.029,CST-1368DR,4887,6009,13127,0.694,551
2022-02-21T09:29:43,42.805,6.029,CST-1368DR,4887,6009,13127,0.694,551
2022-02-21T09:32:45,42.805,6.029,CST-1368DR,4887,6009,13127,0.694,551
2022-02-21T09:35:46,42.805,6.029,CST-1368DR,4887,6008,13126,0.695,551
2022-02-21T09:38:48,42.805,6.029,CST-1368DR,4887,6008,13126,0.695,551
2022-02-21T09:41:49,42.805,6.029,CST-1368DR,4887,6010,13129,0.694,551
2022-02-21T09:44:51,42.805,6.029,CST-1368DR,4887,6008,13125,0.695,551
2022-02-21T09:47:52,42.805,6.029,CST-1368DR,4887,6007,13123,0.696,551
2022-02-21T09:50:54,42.805,6.029,CST-1368DR,4887,6008,13126,0.695,551
2022-02-21T09:53:56,42.805,6.029,CST-1368DR,4887,6008,13125,0.695,551
2022-02-21T09:56:57,42.805,6.029,CST-1368DR,4887,6007,13123,0.696,551
2022-02-21T09:59:59,42.805,6.029,CST-1368DR,4887,6004,13117,0.698,551
2022-02-21T10:03:00,42.805,6.029,CST-1368DR,4887,6007,13122,0.696,551
2022-02-21T10:06:02,42.805,6.029,CST-1368DR,4887,6008,13124,0.695,551
2022-02-21T10:09:04,42.805,6.029,CST-1368DR,4887,6008,13125,0.695,551
2022-02-21T10:12:05,42.805,6.029,CST-1368DR,4887,6007,13124,0.695,551
2022-02-21T10:15:07,42.805,6.029,CST-1368DR,4887,6008,13125,0.695,551
2022-02-21T10:18:08,42.805,6.029,CST-1368DR,4887,6008,13125,0.695,551
2022-02-21T10:21:10,42.805,6.029,CST-1368DR,4887,6007,13124,0.695,551
2022-02-21T10:24:11,42.805,6.029,CST-1368DR,4887,6007,13122,0.696,551
2022-02-21T10:27:13,42.805,6.029,CST-1368DR,4887,6004,13117,0.698,551
2022-02-21T10:30:15,42.805,6.029,CST-1368DR,4887,6005,13119,0.697,551
2022-02-21T10:33:16,42.805,6.029,CST-1368DR,4887,6006,13120,0.697,551
2022-02-21T10:36:18,42.805,6.029,CST-1368DR,4887,6006,13120,0.697,551
2022-02-21T10:39:19,42.805,6.029,CST-1368DR,4887,6005,13118,0.697,551
2022-02-21T10:42:21,42.805,6.029,CST-1368DR,4887,6002,13112,0.699,551
2022-02-21T10:45:22,42.805,6.029,CST-1368DR,4887,6002,13113,0.699,551
2022-02-21T10:48:24,42.805,6.029,CST-1368DR,4887,6005,13118,0.697,551
2022-02-21T10:51:26,42.805,6.029,CST-1368DR,4887,6002,13113,0.699,551
2022-02-21T10:54:27,42.805,6.029,CST-1368DR,4887,6001,13109,0.700,551
2022-02-21T10:57:29,42.805,6.029,CST-1368DR,4887,6005,13119,0.697,550
2022-02-21T11:00:30,42.805,6.029,CST-1368DR,4887,6002,13112,0.699,551
2022-02-21T11:03:32,42.805,6.029,CST-1368DR,4887,6003,13114,0.698,551
2022-02-21T11:06:34,42.805,6.029,CST-1368DR,4887,6001,13110,0.700,551
2022-02-21T11:09:35,42.805,6.029,CST-1368DR,4887,6002,13112,0.699,551
2022-02-21T11:12:37,42.805,6.029,CST-1368DR,4887,6003,13113,0.699,551
2022-02-21T11:15:38,42.805,6.029,CST-1368DR,4887,6002,13113,0.699,551
2022-02-21T11:18:40,42.805,6.029,CST-1368DR,4887,6002,13113,0.699,551
2022-02-21T11:21:41,42.805,6.029,CST-1368DR,4887,6003,13114,0.698,551
2022-02-21T11:24:43,42.805,6.029,CST-1368DR,4887,6002,13112,0.699,551
2022-02-21T11:27:45,42.805,6.029,CST-1368DR,4887,6000,13107,0.701,551
2022-02-21T11:30:46,42.805,6.029,CST-1368DR,4887,6002,13111,0.699,551
2022-02-21T11:33:48,42.805,6.029,CST-1368DR,4887,6001,13110,0.700,551
2022-02-21T11:36:49,42.805,6.029,CST-1368DR,4887,6001,13109,0.700,551
2022-02-21T11:39:51,42.805,6.029,CST-1368DR,4887,6001,13109,0.700,551
2022-02-21T11:42:53,42.805,6.029,CST-1368DR,4887,6001,13110,0.700,551
2022-02-21T11:45:54,42.805,6.029,CST-1368DR,4887,6001,13109,0.700,551
2022-02-21T11:48:56,42.805,6.029,CST-1368DR,4887,6003,13114,0.698,551
2022-02-21T11:51:57,42.805,6.029,CST-1368DR,4887,6001,13110,0.700,551
2022-02-21T11:54:59,42.805,6.029,CST-1368DR,4887,6001,13109,0.700,551
2022-02-21T11:58:00,42.805,6.029,CST-1368DR,4887,6000,13108,0.700,551
2022-02-21T12:01:02,42.805,6.029,CST-1368DR,4887,6000,13107,0.701,551
2022-02-21T12:04:04,42.805,6.029,CST-1368DR,4887,6002,13111,0.699,551
2022-02-21T12:07:05,42.805,6.029,CST-1368DR,4887,6002,13111,0.699,551
2022-02-21T12:10:07,42.805,6.029,CST-1368DR,4887,6000,13108,0.700,551
2022-02-21T12:13:08,42.805,6.029,CST-1368DR,4887,6001,13109,0.700,551
2022-02-21T12:16:10,42.805,6.029,CST-1368DR,4887,6001,13110,0.700,551
2022-02-21T12:19:11,42.805,6.029,CST-1368DR,4887,6002,13112,0.699,551
2022-02-21T12:22:13,42.805,6.029,CST-1368DR,4887,5999,13105,0.701,551
2022-02-21T12:25:15,42.805,6.029,CST-1368DR,4887,6000,13107,0.701,551
2022-02-21T12:28:16,42.805,6.029,CST-1368DR,4887,5999,13105,0.701,551
2022-02-21T12:31:18,42.805,6.029,CST-1368DR,4887,6002,13112,0.699,551
2022-02-21T12:34:19,42.805,6.029,CST-1368DR,4887,6002,13112,0.699,551
2022-02-21T12:37:21,42.805,6.029,CST-1368DR,4887,6001,13109,0.700,551
2022-02-21T12:40:23,42.805,6.029,CST-1368DR,4887,6003,13114,0.698,551
2022-02-21T12:43:24,42.805,6.029,CST-1368DR,4887,6001,13110,0.700,551
2022-02-21T12:46:26,42.805,6.029,CST-1368DR,4887,5999,13106,0.701,551
2022-02-21T12:49:27,42.805,6.029,CST-1368DR,4887,5999,13105,0.701,551
2022-02-21T12:52:29,42.805,6.029,CST-1368DR,4887,6001,13109,0.700,551
2022-02-21T12:55:30,42.805,6.029,CST-1368DR,4887,6001,13109,0.700,551
2022-02-21T12:58:32,42.805,6.029,CST-1368DR,4887,5999,13104,0.702,551
2022-02-21T13:01:34,42.805,6.029,CST-1368DR,4887,6002,13113,0.699,551
2022-02-21T13:04:35,42.805,6.029,CST-1368DR,4887,6002,13112,0.699,551
2022-02-21T13:07:37,42.805,6.029,CST-1368DR,4887,6001,13110,0.700,551
2022-02-21T13:10:38,42.805,6.029,CST-1368DR,4887,6003,13113,0.699,551
2022-02-21T13:13:40,42.805,6.029,CST-1368DR,4887,6003,13114,0.698,551
2022-02-21T13:16:42,42.805,6.029,CST-1368DR,4887,6003,13115,0.698,551
2022-02-21T13:19:43,42.805,6.029,CST-1368DR,4887,6002,13113,0.699,551
2022-02-21T13:22:45,42.805,6.029,CST-1368DR,4887,6003,13114,0.698,551
2022-02-21T13:25:46,42.805,6.029,CST-1368DR,4887,6003,13114,0.698,551
2022-02-21T13:28:48,42.805,6.029,CST-1368DR,4887,6002,13112,0.699,551
2022-02-21T13:31:49,42.805,6.029,CST-1368DR,4887,6003,13113,0.699,551
2022-02-21T13:34:51,42.805,6.029,CST-1368DR,4887,6004,13116,0.698,551
2022-02-21T13:37:53,42.805,6.029,CST-1368DR,4887,6002,13112,0.699,551
2022-02-21T13:40:54,42.805,6.029,CST-1368DR,4887,6004,13117,0.698,551
2022-02-21T13:43:56,42.805,6.029,CST-1368DR,4887,6003,13115,0.698,551
2022-02-21T13:46:57,42.805,6.029,CST-1368DR,4887,6002,13112,0.699,551
2022-02-21T13:49:59,42.805,6.029,CST-1368DR,4887,6004,13117,0.698,551
2022-02-21T13:53:00,42.805,6.029,CST-1368DR,4887,6004,13117,0.698,551
2022-02-21T13:56:02,42.805,6.029,CST-1368DR,4887,6004,13116,0.698,551
2022-02-21T13:59:04,42.805,6.029,CST-1368DR,4887,6005,13118,0.697,551
2022-02-21T14:02:05,42.805,6.029,CST-1368DR,4887,6005,13118,0.697,551
2022-02-21T14:05:07,42.805,6.029,CST-1368DR,4887,6002,13112,0.699,551
2022-02-21T14:08:08,42.805,6.029,CST-1368DR,4887,6004,13116,0.698,551
2022-02-21T14:11:10,42.805,6.029,CST-1368DR,4887,6002,13113,0.699,551
2022-02-21T14:14:12,42.805,6.029,CST-1368DR,4887,6002,13113,0.699,551
2022-02-21T14:17:13,42.805,6.029,CST-1368DR,4887,6003,13115,0.698,551
2022-02-21T14:20:15,42.805,6.029,CST-1368DR,4887,6002,13112,0.699,551
2022-02-21T14:23:16,42.805,6.029,CST-1368DR,4887,6001,13110,0.700,551
2022-02-21T14:26:18,42.805,6.029,CST-1368DR,4887,6004,13116,0.698,551
2022-02-21T14:29:19,42.805,6.029,CST-1368DR,4887,6003,13115,0.698,551
2022-02-21T14:32:21,42.805,6.029,CST-1368DR,4887,6003,13113,0.699,551
2022-02-21T14:35:23,42.805,6.029,CST-1368DR,4887,6004,13116,0.698,551
2022-02-21T14:38:24,42.805,6.029,CST-1368DR,4887,6005,13118,0.697,551
2022-02-21T14:41:26,42.805,6.029,CST-1368DR,4887,6003,13114,0.698,551
2022-02-21T14:44:27,42.805,6.029,CST-1368DR,4887,6002,13113,0.699,551
2022-02-21T14:47:29,42.805,6.029,CST-1368DR,4887,6004,13117,0.698,551
2022-02-21T14:50:31,42.805,6.029,CST-1368DR,4887,6005,13118,0.697,551
2022-02-21T14:53:32,42.805,6.029,CST-1368DR,4887,6002,13112,0.699,551
2022-02-21T14:56:34,42.805,6.029,CST-1368DR,4887,6004,13116,0.698,551
2022-02-21T14:59:35,42.805,6.029,CST-1368DR,4887,6004,13117,0.698,551
2022-02-21T15:02:37,42.805,6.029,CST-1368DR,4887,6003,13114,0.698,551
2022-02-21T15:05:38,42.805,6.029,CST-1368DR,4887,6003,13114,0.698,551
2022-02-21T15:08:40,42.805,6.029,CST-1368DR,4887,6005,13118,0.697,551
2022-02-21T15:11:42,42.805,6.029,CST-1368DR,4887,6005,13118,0.697,551
2022-02-21T15:14:43,42.805,6.029,CST-1368DR,4887,6005,13118,0.697,551
2022-02-21T15:17:45,42.805,6.029,CST-1368DR,4887,6005,13119,0.697,551
2022-02-21T15:20:46,42.805,6.029,CST-1368DR,4887,6004,13117,0.698,551
2022-02-21T15:23:48,42.805,6.029,CST-1368DR,4887,6004,13116,0.698,551
2022-02-21T15:26:49,42.805,6.029,CST-1368DR,4887,6005,13119,0.697,551
2022-02-21T15:29:51,42.805,6.029,CST-1368DR,4887,6005,13119,0.697,551
2022-02-21T15:32:53,42.805,6.029,CST-1368DR,4887,6004,13117,0.698,551
2022-02-21T15:35:54,42.805,6.029,CST-1368DR,4887,6005,13118,0.697,551
2022-02-21T15:38:56,42.805,6.029,CST-1368DR,4887,6007,13122,0.696,551
2022-02-21T15:41:57,42.805,6.029,CST-1368DR,4887,6004,13117,0.698,551
2022-02-21T15:44:59,42.805,6.029,CST-1368DR,4887,6004,13117,0.698,550
2022-02-21T15:48:01,42.805,6.029,CST-1368DR,4887,6007,13123,0.696,551
2022-02-21T15:51:02,42.805,6.029,CST-1368DR,4887,6004,13117,0.698,551
2022-02-21T15:54:04,42.805,6.029,CST-1368DR,4887,6003,13114,0.698,551
2022-02-21T15:57:05,42.805,6.029,CST-1368DR,4887,6005,13119,0.697,551
2022-02-21T16:00:07,42.805,6.029,CST-1368DR,4887,6005,13119,0.697,551
2022-02-21T16:03:08,42.805,6.029,CST-1368DR,4887,6005,13118,0.697,551
2022-02-21T16:06:10,42.805,6.029,CST-1368DR,4887,6005,13118,0.697,551
2022-02-21T16:09:12,42.805,6.029,CST-1368DR,4887,6006,13121,0.696,551
2022-02-21T16:12:13,42.805,6.029,CST-1368DR,4887,6006,13120,0.697,551
2022-02-21T16:15:15,42.805,6.029,CST-1368DR,4887,6006,13120,0.697,551
2022-02-21T16:18:16,42.805,6.029,CST-1368DR,4887,6003,13115,0.698,551
2022-02-21T16:21:18,42.805,6.029,CST-1368DR,4887,6006,13120,0.697,551
2022-02-21T16:24:20,42.805,6.029,CST-1368DR,4887,6005,13118,0.697,551
2022-02-21T16:27:21,42.805,6.029,CST-1368DR,4887,6006,13121,0.696,551
2022-02-21T16:30:23,42.805,6.029,CST-1368DR,4887,6005,13118,0.697,551
2022-02-21T16:33:24,42.805,6.029,CST-1368DR,4887,6005,13118,0.697,551
2022-02-21T16:36:26,42.805,6.029,CST-1368DR,4887,6005,13118,0.697,551
2022-02-21T16:39:27,42.805,6.029,CST-1368DR,4887,6005,13118,0.697,551
2022-02-21T16:42:29,42.805,6.029,CST-1368DR,4887,6005,13119,0.697,551
2022-02-21T16:45:31,42.805,6.029,CST-1368DR,4887,6006,13121,0.696,551
2022-02-21T16:48:32,42.805,6.029,CST-1368DR,4887,6008,13125,0.695,551
2022-02-21T16:51:34,42.805,6.029,CST-1368DR,4887,6007,13122,0.696,551